Tracking 17138 objects as of 3-July-2015
HD Live streaming from Space Station

GLOBALSTAR M082

Track GLOBALSTAR M082 now!
10-day predictions
GLOBALSTAR M082 is classified as:


NORAD ID: 38042
Int'l Code: 2011-080C
Perigee: 1,420.2 km
Apogee: 1,421.3 km
Inclination: 52.0 °
Period: 114.1 minutes
Semi major axis: 7791 km
RCS: 4.8173 m2 (large)
Launch date: December 28, 2011
Source: Globalstar (GLOB)
Your satellite tracking list
Your tracking list is empty





NASA's NSSDC Master Catalog

Two Line Element Set (TLE):
1 38042U 11080C   15183.50658399 -.00000087  00000-0  95608-4 0  9998
2 38042 052.0080 278.4432 0000728 155.9696 250.1102 12.62266538164274

Source of the keplerian elements: AFSPC

N2YO: 250